Weather History for West Palm Beach, FL

Change the Weather History Date:

Sunday, January 8, 2012

  Actual Average Record
Temperature  
Mean Temperature 64 °F 66 °F  
Max Temperature 76 °F 74 °F 87 °F (1990)
Min Temperature 52 °F 57 °F 34 °F (1970)
Degree Days  
Heating Degree Days 1 3  
Month to date heating degree days 53 24  
Since 1 July heating degree days 64 95  
Cooling Degree Days 0 3  
Month to date cooling degree days 3 31  
Year to date cooling degree days 3 31  
Growing Degree Days 14 (Base 50)    
Moisture  
Dew Point 54 °F    
Average Humidity 71    
Maximum Humidity 96    
Minimum Humidity 46    
Precipitation  
Precipitation 0.00 in 0.11 in 2.41 in (1986)
Month to date precipitation T 0.88  
Year to date precipitation T 0.88  
Snow  
Snow 0.00 in - - ()
Month to date snowfall 0.0  
Since 1 July snowfall 0.0  
Snow Depth 0.00 in    
Sea Level Pressure  
Sea Level Pressure 30.20 in    
Wind  
Wind Speed 5 mph (East)    
Max Wind Speed 15 mph    
Max Gust Speed 20 mph    
Visibility 10 miles    
Events      
T = Trace of Precipitation, MM = Missing Value Source: NWS Daily Summary

Daily Weather History Graph

Daily Weather History Graph

Search for Another Location

Airport:

Trip Planner

Search our weather history database for the weather conditions in past years. The results will help you decide how hot, cold, wet, or windy it might be!

Date:

Astronomy

Jan. 08, 2012 Rise Set
Actual Time 7:10 AM EST 5:43 PM EST
Civil Twilight 6:45 AM EST 6:08 PM EST
Nautical Twilight 6:16 AM EST 6:37 PM EST
Astronomical Twilight 5:48 AM EST 7:05 PM EST
Moon 5:23 PM EST (1/8) 6:27 AM EST (1/8)
Length of Visible Light 11h 23m
Length of Day
10h 33m
Full, 100% of the Moon is Illuminated
Jan 8
Full
Jan 9
Full
Jan 16
Last Quarter
Jan 23
New
Jan 30
First Quarter

Hourly Weather History & Observations

Time (EST) Temp. Dew Point Humidity Pressure Visibility Wind Dir Wind Speed Gust Speed Precip Events Conditions
12:53 AM 57.0 °F 52.0 °F 83% 30.17 in 10.0 mi West 3.5 mph - N/A   Partly Cloudy
1:53 AM 54.0 °F 51.1 °F 90% 30.17 in 10.0 mi Calm Calm - N/A   Partly Cloudy
2:53 AM 54.0 °F 51.1 °F 90% 30.17 in 10.0 mi Calm Calm - N/A   Clear
3:53 AM 54.0 °F 52.0 °F 93% 30.17 in 10.0 mi Calm Calm - N/A   Clear
4:53 AM 54.0 °F 52.0 °F 93% 30.17 in 10.0 mi Calm Calm - N/A   Clear
5:53 AM 53.1 °F 51.1 °F 93% 30.17 in 10.0 mi Calm Calm - N/A   Clear
6:53 AM 52.0 °F 50.0 °F 93% 30.19 in 10.0 mi Calm Calm - N/A   Partly Cloudy
7:53 AM 54.0 °F 52.0 °F 93% 30.21 in 10.0 mi Calm Calm - N/A   Scattered Clouds
8:53 AM 62.1 °F 55.9 °F 80% 30.23 in 10.0 mi Calm Calm - N/A   Scattered Clouds
9:53 AM 71.1 °F 55.0 °F 57% 30.24 in 10.0 mi North 5.8 mph - N/A   Scattered Clouds
10:53 AM 73.0 °F 57.0 °F 57% 30.24 in 10.0 mi ENE 5.8 mph - N/A   Scattered Clouds
11:53 AM 75.9 °F 57.0 °F 52% 30.22 in 10.0 mi East 10.4 mph - N/A   Mostly Cloudy
12:53 PM 75.0 °F 57.9 °F 55% 30.20 in 10.0 mi East 9.2 mph - N/A   Scattered Clouds
1:53 PM 75.0 °F 55.9 °F 51% 30.18 in 10.0 mi East 11.5 mph - N/A   Scattered Clouds
2:53 PM 75.0 °F 54.0 °F 48% 30.17 in 10.0 mi ENE 10.4 mph - N/A   Scattered Clouds
3:53 PM 73.9 °F 53.1 °F 48% 30.17 in 10.0 mi East 10.4 mph - N/A   Partly Cloudy
4:53 PM 73.0 °F 55.0 °F 53% 30.18 in 10.0 mi East 9.2 mph - N/A   Scattered Clouds
5:53 PM 71.1 °F 53.1 °F 53% 30.19 in 10.0 mi East 9.2 mph - N/A   Scattered Clouds
6:53 PM 69.1 °F 54.0 °F 58% 30.20 in 10.0 mi East 5.8 mph - N/A   Scattered Clouds
7:53 PM 68.0 °F 55.9 °F 65% 30.22 in 10.0 mi East 5.8 mph - N/A   Scattered Clouds
8:53 PM 69.1 °F 57.0 °F 65% 30.22 in 10.0 mi East 6.9 mph - N/A   Scattered Clouds
9:53 PM 69.1 °F 57.9 °F 68% 30.22 in 10.0 mi East 4.6 mph - N/A   Scattered Clouds
10:53 PM 70.0 °F 57.0 °F 63% 30.21 in 10.0 mi East 8.1 mph - N/A   Scattered Clouds
11:53 PM 69.1 °F 57.9 °F 68% 30.20 in 10.0 mi East 8.1 mph - N/A   Scattered Clouds